Location: Big Meadow
(36.7100°N, 118.8650°W)
Time: 16:40:51
(UTC-07:00)

Daily predictions for brighter satellites

Satellite Brightness Start Highest point End
(mag) Time Altitude Azimuth Time Altitude Azimuth Time Altitude Azimuth
ERS-1 Rocket 3.9 20:24:37 10° SE 20:28:58 30° ENE 20:33:21 10° N
CZ-2D R/B 3.2 20:25:43 10° SSE 20:29:30 77° ENE 20:33:20 10° N
ISS -2.7 20:32:40 10° WSW 20:35:53 61° NW 20:39:07 10° NE
Cosmos 407 Rocket 3.8 20:31:00 10° N 20:36:11 53° ENE 20:41:23 10° SSE
Cosmos 1733 Rocket 3.1 20:36:00 10° S 20:40:25 87° W 20:44:49 10° N
Cosmos 1908 Rocket 4.1 20:36:26 10° SSE 20:40:29 38° E 20:44:36 10° NNE
Meteor 1-10 Rocket 4.3 20:37:40 10° N 20:43:29 74° E 20:49:07 10° SSE
Cosmos 1606 3.6 20:40:01 10° NNE 20:43:33 32° ENE 20:47:04 10° SE
Cosmos 1862 4.0 20:42:20 10° SSE 20:46:02 35° E 20:49:46 10° NNE
Cosmos 1892 3.8 20:42:46 10° SSW 20:46:28 48° W 20:50:14 10° N
Cosmos 1452 Rocket 3.5 20:42:50 10° S 20:48:01 66° ESE 20:53:15 10° NNE
Cosmos 1184 Rocket 4.0 20:46:48 10° SSE 20:49:32 24° E 20:52:18 10° NE
Cosmos 1190 Rocket 4.1 20:47:46 10° NNW 20:52:59 84° WSW 20:58:11 10° SSE
Cosmos 1238 Rocket 3.8 20:50:35 10° NNE 20:53:36 26° E 20:56:23 13° SE
Abrixas 3.6 20:51:45 10° SSW 20:54:16 24° SE 20:56:48 10° E
Cosmos 2341 Rocket 4.3 20:51:05 10° SSE 20:57:01 45° E 21:02:56 10° NNE
SPOT 5 4.2 20:53:16 12° ESE 20:57:18 29° ENE 21:01:49 10° N
deb Chang Zheng 4 4.1 20:54:51 10° NNE 20:59:03 41° E 21:03:14 10° S
H-2A R/B 3.8 20:58:42 10° S 21:02:14 43° W 21:05:48 10° NNW
Cosmos 1242 Rocket 4.1 21:01:23 10° NNE 21:04:12 20° ENE 21:05:37 17° ESE
CENTAUR R/B 4.1 20:57:14 10° NW 21:04:41 44° WSW 21:12:25 10° S
YAOGAN 6 4.3 21:07:53 15° E 21:08:54 16° ENE 21:11:11 10° NNE
Meteor 1-27 Rocket 3.6 21:03:42 10° N 21:09:15 72° E 21:14:44 10° SSE
H-2A R/B 2.5 21:06:49 16° SE 21:09:57 44° ENE 21:13:58 10° N
Cosmos 1408 2.5 21:07:10 10° S 21:10:46 61° E 21:14:22 10° NNE
Cosmos 1782 3.4 21:08:20 10° NNW 21:12:18 57° W 21:16:16 10° S
YAOGAN 11 4.3 21:09:01 10° S 21:13:31 76° WSW 21:18:06 10° NNW
Timation 2 Rocket 4.4 21:09:37 10° N 21:15:17 42° ENE 21:19:07 19° ESE
ATLAS 5 CENTAUR R/B 3.8 21:09:50 10° NW 21:15:20 34° WSW 21:21:05 10° S
CZ-4 DEB 3.8 21:15:43 10° S 21:18:44 44° W 21:21:48 10° NNW
COS B Rocket 3.0 21:15:28 10° N 21:19:19 64° E 21:21:39 19° SSE
Cosmos 2154 Rocket 4.0 21:13:59 10° S 21:20:12 89° W 21:26:26 10° N
Cosmos 1174 3.6 21:20:25 10° NW 21:23:27 52° WSW 21:24:58 23° S
Okean 3 3.5 21:19:43 10° N 21:23:57 62° E 21:26:33 22° SSE
Cosmos 676 Rocket 4.1 21:18:55 10° NNW 21:24:07 74° WSW 21:28:38 14° S
BREEZE-M DEB (TANK) 4.3 21:11:32 10° WNW 21:25:11 51° NNE 21:28:16 18° E
Cosmos 1954 Rocket 4.0 21:22:02 10° NNW 21:27:16 90° NE 21:31:07 19° SSE
Cosmos 1825 2.4 21:24:44 10° SSW 21:28:31 73° W 21:32:21 10° N
GPS 2-05 Rocket1 2.9 21:24:58 10° W 21:28:42 76° S 21:30:20 31° E
Cosmos 489 Rocket 4.5 21:23:18 10° NNW 21:29:30 68° ENE 21:33:36 22° SSE
Cosmos 1939 Rocket 2.8 21:27:49 18° S 21:30:36 78° WSW 21:34:32 10° NNW
MetOp-A 4.3 21:33:34 25° SE 21:36:33 56° ENE 21:41:47 10° N
Atlas Centaur 2 2.9 21:35:14 10° WSW 21:37:37 17° SSW 21:37:47 17° SSW
Cosmos 1833 Rocket 3.7 21:35:51 10° N 21:40:50 31° ENE 21:42:58 24° E
Cosmos 1023 Rocket 4.4 21:37:42 10° NNW 21:42:50 83° ENE 21:45:30 29° SSE
PSLV R/B 3.2 21:43:21 52° ENE 21:43:21 52° ENE 21:46:14 10° N
Cosmos 1741 Rocket 4.1 21:38:53 10° N 21:44:04 59° ENE 21:46:14 33° SE
Cosmos 2278 Rocket 3.2 21:39:03 10° SW 21:44:30 49° WNW 21:50:01 10° N
Cosmos 2366 rocket 4.3 21:41:55 26° SSE 21:45:09 46° E 21:51:09 10° NNE
Okean 2 Rocket 3.1 21:42:12 12° S 21:46:12 78° W 21:50:37 10° N
CZ-4 SHROUD 3.2 21:47:01 56° ENE 21:47:02 56° ENE 21:50:04 10° N
CZ-4 R/B 4.4 21:46:11 10° NNE 21:50:25 35° E 21:50:35 34° ESE
Cosmos 1782 Rocket 4.4 21:49:20 10° SSW 21:53:39 50° W 21:58:02 10° N
Cosmos 1110 Rocket 4.4 21:53:34 37° ESE 21:54:19 39° ESE 21:59:09 10° NE
Envisat 3.6 21:52:24 18° S 21:56:04 54° W 22:01:03 10° NNW
OAO 1 Rocket 4.3 21:54:20 10° WSW 21:59:37 72° S 22:01:37 38° E
SEDSat Delta rocket 3.6 21:55:55 10° WSW 21:59:21 35° SSW 21:59:21 35° SSW
SL-08 RB Rocket 4.2 21:59:46 39° E 22:00:27 42° ENE 22:04:50 10° N
COSMOS 2487 4.0 21:58:15 10° NW 22:01:30 31° WSW 22:02:51 23° SW
OAO 3 Rocket 3.2 21:57:37 10° WSW 22:02:33 65° S 22:03:43 48° ESE
Cosmos 614 Rocket 3.8 21:58:05 10° NNW 22:03:11 82° ENE 22:04:45 45° SSE
Cosmos 1812 4.3 22:00:04 10° NNE 22:02:27 22° ENE 22:02:27 22° ENE
UNK 4.4 21:59:13 10° NNE 22:05:23 88° WNW 22:10:07 16° SSW
Cosmos 2082 Rocket 2.2 22:01:17 10° NNW 22:06:58 67° ENE 22:08:39 45° SE
Elektron 3 4.3 22:06:00 10° NW 22:09:05 79° SW 22:09:36 64° S
Cosmos 1975 Rocket 4.0 22:06:39 10° NNW 22:10:46 42° W 22:12:50 25° SSW
ISS 0.1 22:11:42 10° NW 22:12:52 11° NNW 22:14:03 10° N
Meteor 1-18 Rocket 4.4 22:08:47 10° N 22:14:39 61° E 22:16:07 47° SE
Cosmos 2218 Rocket 4.0 22:11:24 23° S 22:15:39 85° W 22:22:05 10° N
Cosmos 1140 Rocket 4.3 22:13:07 10° NNW 22:18:00 44° WSW 22:20:11 28° SSW
Meteor 1-14 Rocket 4.5 22:13:54 19° SSW 22:18:04 68° W 22:23:38 10° N
Terra 2.8 22:19:00 32° ENE 22:19:00 32° ENE 22:23:08 10° N
Meteor 2-19 Rocket 4.4 22:17:09 45° SSE 22:18:56 64° E 22:24:59 10° NNE
DNEPR-1 R/B 4.3 22:18:37 10° NW 22:23:27 46° WSW 22:24:13 42° SW
Cosmos 1536 Rocket 3.5 22:19:19 10° N 22:23:49 75° E 22:23:51 75° E
NOAA 11 4.1 22:24:52 53° S 22:26:16 88° WSW 22:31:48 10° NNW
CZ-4B R/B 3.6 22:22:27 10° N 22:27:19 68° WNW 22:29:10 37° SW
Lacrosse 5 rocket 3.7 22:33:05 12° NE 22:33:05 12° NE 22:33:25 10° NE
Cosmos 1727 Rocket 3.9 22:25:46 10° N 22:31:58 84° E 22:33:32 54° SSE
USA 234 3.6 22:25:51 10° ENE 22:31:10 43° ESE 22:31:10 43° ESE
Meteor 2-8 Rocket 4.3 22:26:07 10° N 22:32:19 85° E 22:33:50 54° SSE
H-2A R/B 2.2 22:32:29 55° E 22:32:52 56° ENE 22:38:03 10° N
SPOT 5 4.4 22:32:32 21° SW 22:35:10 33° W 22:39:59 10° NNW
USA 245 4.4 22:40:34 36° W 22:40:34 36° W 22:44:00 10° NNW
Meteor 1-11 Rocket 4.3 22:44:05 43° ENE 22:44:05 43° ENE 22:48:55 10° NNE
SPOT 1/Viking Rocket 4.3 22:47:30 39° SW 22:48:36 44° W 22:53:35 10° NNW
Cosmos 1302 Rocket 4.3 22:49:53 56° NE 22:49:53 56° NE 22:54:15 10° NNE
Lacrosse 5 2.0 22:49:52 68° NE 22:49:52 68° NE 22:54:21 10° NE
CZ-4C R/B 4.2 22:50:24 49° NNW 22:50:24 49° NNW 22:53:30 10° NNW
Cosmos 2369 Rocket 3.5 22:53:08 27° ENE 22:53:08 27° ENE 22:56:03 10° NE
ARGOS 3.7 22:50:51 43° SW 22:51:50 49° W 22:57:01 10° NNW
Cosmos 1339 Rocket 4.4 22:47:06 10° N 22:53:18 80° W 22:54:22 62° SSW
Gbstr 26 Del rocket 4.1 22:52:32 10° NW 22:56:49 39° NNE 22:56:49 39° NNE
Cosmos 1821 Rocket 4.2 23:01:40 55° ENE 23:01:40 55° ENE 23:07:22 10° NNE
Cosmos 1300 Rocket 4.3 23:03:17 52° NNW 23:03:17 52° NNW 23:06:54 10° N
Meteor 2-21 4.4 23:08:56 72° ENE 23:08:56 72° ENE 23:14:53 10° NNE
Okean 1 Rocket 4.0 23:10:37 47° NNW 23:10:37 47° NNW 23:14:03 10° N
Cosmos 1934 Rocket 4.3 23:11:04 50° ENE 23:11:04 50° ENE 23:16:06 10° NNE
ASTEX 1 3.8 23:06:32 10° N 23:10:36 60° N 23:10:36 60° N
Iridium 4 Rocket 4.3 23:06:58 10° N 23:11:58 50° ENE 23:11:58 50° ENE
Cosmos 1809 Rocket 4.3 23:13:45 79° ENE 23:13:45 79° ENE 23:19:47 10° N
Cosmos 2285 Rocket 4.3 23:14:43 55° ENE 23:14:43 55° ENE 23:20:06 10° NNE
Cosmos 1943 Rocket 4.3 23:22:12 15° ENE 23:22:12 15° ENE 23:23:25 10° NE
Cosmos 2123 Rocket 4.5 23:16:15 10° N 23:21:40 47° ENE 23:21:40 47° ENE
USA 229 DEB 4.4 23:17:49 10° NW 23:24:28 44° WSW 23:25:08 43° SW
USA 229 4.3 23:17:54 10° NW 23:24:35 44° WSW 23:25:13 43° SW
Cosmos 1833 Rocket 3.9 23:19:44 10° NW 23:24:40 32° WSW 23:24:40 32° WSW
NOSS 3-1 (A) 4.0 23:35:26 10° NNW 23:43:10 77° ENE 23:43:53 72° ESE
Cosmos 2082 Rocket 4.4 23:47:28 10° WNW 23:50:22 14° W 23:50:30 14° W
